OBJECT H, 61901

Orbit data source: Space-Track

You're viewing an Uncataloged Satellite

Recently launched and/or uncataloged satellites may have evolving metadata. Metadata may include but not limited to: Owner, Maufacturer, Bus, Motor, and Mission.

OBJECT H, 61901 is a Chinese satellite in SSO that was launched on Mon, 11 Nov 2024 UTC via a LIJIAN-1 launch vehicle from the Jiuquan Satellite Launch Center, China (JSC). Unknown objects in Earth's orbit typically refer to objects detected orbiting the Earth but have not yet been identified or cataloged. These objects could be anything from previously untracked satellites, spent rocket stages, debris from satellite collisions, or even natural meteoroids temporarily captured by Earth's gravity.

Loading next visibility...
Identifier
61901, 2024-205H
Orbit
SSO
Country
Flag of CNCN / PRC
Related business
None
Manufacturer
Unknown
Mission
Operational Commercial Imaging
Bus & Motor
Unknown
Mass
Unknown
Launch date (UTC)
2024-11-11 (1 year ago)
Launch vehicle
LIJIAN-1
Launch site
Jiuquan Satellite Launch Center, China (JSC)
Object type
Unknown
Shape & HBR
Box + 2 Pan, 0.5 m
Radar Cross Section
0.195 m², Medium (>0.1 m² and < 1m²)

Expand to show TLE details & history
Last TLE update: 11 hours ago

TLE from 11 hours ago
0 OBJECT H
1 61901U 24205H   26034.66273214  .00015538  00000-0  56971-3 0  9999
2 61901  97.4236 112.9412 0011290 147.5771 212.6164 15.28012338 68307
Epoch: 2026-02-03T15:54Z
TLE epoch observation values (Epoch: 2026-02-03T15:54:20.056Z)
Latitude
-0.00008°
Longitude
100.5172°
Altitude
491.383 km
Speed
7.616 km/s
True Right ascension
07h 31m 45s
True Declination
0° 00' 00"
Sunlit
Object was in full shadow at epoch
Visualization orbit readout
Latitude
Unknown
Longitude
Unknown
Altitude
Unknown
Speed
Unknown
Apparent Right ascension
Unknown
Apparent Declination
Unknown
Sunlit
N/A
Visualization observer readout
Local Sidereal Time
04:48:19
Azimuth
Unknown
Elevation
Unknown
Doppler factor
Unknown
Orbital elements
Apogee altitude
486.452 km
Perigee altitude
470.969 km
Semi-major axis
6,856.848 km
Eccentricity
0.00113
Inclination
97.4236°
RAAN
112.9412°
Arg. of periapsis
147.5771°
True anomaly
212.54675°
Mean anomaly
212.6164°
Eccentric anomaly
212.58157°
Mean motion
3.82258 °/min
Orbital period
94.18 mins
BSTAR
0.00056971
Loading maneuver chart data...
Computing Atmospheric mass density...
Loading historical data...
Loading historical data...
Loading historical data...
Loading historical data...
Loading historical data...
Loading historical data...
Loading historical data...

Documentation

Showing up to 5 results
|